Time,TemperatureF,DewpointF,PressureIn,WindDirection,WindDirectionDegrees,WindSpeedMPH,WindSpeedGustMPH,Humidity,HourlyPrecipIn,Conditions,Clouds,dailyrainin,SoftwareType,DateUTC
2013-06-18 00:07:00,58.1,49.9,29.96,East,90,2.2,-999.0,74,-99.99,,,0.00,Acu-Link.com,2013-06-18 05:07:00,
2013-06-18 00:22:00,57.9,50.0,29.94,NNE,22,2.7,-999.0,75,-99.99,,,0.00,Acu-Link.com,2013-06-18 05:22:00,
2013-06-18 00:38:00,57.7,49.8,29.96,East,90,2.7,-999.0,75,-99.99,,,0.00,Acu-Link.com,2013-06-18 05:38:00,
2013-06-18 00:53:00,57.2,49.3,29.95,North,0,1.1,-999.0,75,-99.99,,,0.00,Acu-Link.com,2013-06-18 05:53:00,
2013-06-18 01:08:00,57.0,49.5,29.95,NE,45,2.7,-999.0,76,-99.99,,,0.00,Acu-Link.com,2013-06-18 06:08:00,
2013-06-18 01:23:00,56.8,49.7,29.96,ESE,112,0.0,-999.0,77,-99.99,,,0.00,Acu-Link.com,2013-06-18 06:23:00,
2013-06-18 01:38:00,56.3,48.8,29.95,ESE,112,4.2,-999.0,76,-99.99,,,0.00,Acu-Link.com,2013-06-18 06:38:00,
2013-06-18 01:54:00,55.9,48.4,29.96,NNE,22,2.2,-999.0,76,-99.99,,,0.00,Acu-Link.com,2013-06-18 06:54:00,
2013-06-18 02:29:00,55.6,48.2,29.97,ESE,112,2.2,-999.0,76,-99.99,,,0.00,Acu-Link.com,2013-06-18 07:29:00,
2013-06-18 02:45:00,54.9,47.1,29.97,SSE,157,4.2,-999.0,75,-99.99,,,0.00,Acu-Link.com,2013-06-18 07:45:00,
2013-06-18 03:00:00,54.3,45.5,29.97,North,0,5.3,-999.0,72,-99.99,,,0.00,Acu-Link.com,2013-06-18 08:00:00,
2013-06-18 03:16:00,54.0,44.8,29.98,ESE,112,2.2,-999.0,71,-99.99,,,0.00,Acu-Link.com,2013-06-18 08:16:00,
2013-06-18 03:31:00,53.6,44.4,29.98,NNW,337,1.1,-999.0,71,-99.99,,,0.00,Acu-Link.com,2013-06-18 08:31:00,
2013-06-18 03:46:00,53.1,43.9,29.98,SSE,157,1.7,-999.0,71,-99.99,,,0.00,Acu-Link.com,2013-06-18 08:46:00,
2013-06-18 04:01:00,52.0,43.6,29.99,North,0,2.7,-999.0,73,-99.99,,,0.00,Acu-Link.com,2013-06-18 09:01:00,
2013-06-18 04:16:00,51.1,43.1,29.99,NNE,22,0.0,-999.0,74,-99.99,,,0.00,Acu-Link.com,2013-06-18 09:16:00,
2013-06-18 04:32:00,50.4,43.1,29.99,North,0,2.2,-999.0,76,-99.99,,,0.00,Acu-Link.com,2013-06-18 09:32:00,
2013-06-18 04:47:00,50.0,43.1,29.99,North,0,0.0,-999.0,77,-99.99,,,0.00,Acu-Link.com,2013-06-18 09:47:00,
2013-06-18 05:02:00,49.6,43.7,29.99,North,0,0.0,-999.0,80,-99.99,,,0.00,Acu-Link.com,2013-06-18 10:02:00,
2013-06-18 05:17:00,49.1,43.2,29.98,North,0,0.0,-999.0,80,-99.99,,,0.00,Acu-Link.com,2013-06-18 10:17:00,
2013-06-18 05:33:00,48.9,43.7,30.00,NNE,22,1.7,-999.0,82,-99.99,,,0.00,Acu-Link.com,2013-06-18 10:33:00,
2013-06-18 05:48:00,48.7,43.8,30.01,East,90,0.0,-999.0,83,-99.99,,,0.00,Acu-Link.com,2013-06-18 10:48:00,
2013-06-18 06:03:00,49.5,44.6,30.03,North,0,1.7,-999.0,83,-99.99,,,0.00,Acu-Link.com,2013-06-18 11:03:00,
2013-06-18 06:19:00,50.0,44.7,30.01,NNE,22,2.2,-999.0,82,-99.99,,,0.00,Acu-Link.com,2013-06-18 11:19:00,
2013-06-18 06:34:00,50.5,45.2,30.04,North,0,0.0,-999.0,82,-99.99,,,0.00,Acu-Link.com,2013-06-18 11:34:00,
2013-06-18 06:49:00,50.9,45.6,30.03,North,0,0.0,-999.0,82,-99.99,,,0.00,Acu-Link.com,2013-06-18 11:49:00,
2013-06-18 07:05:00,51.6,46.3,30.04,North,0,0.0,-999.0,82,-99.99,,,0.00,Acu-Link.com,2013-06-18 12:05:00,
2013-06-18 07:20:00,52.3,46.6,30.05,NNE,22,2.2,-999.0,81,-99.99,,,0.00,Acu-Link.com,2013-06-18 12:20:00,
2013-06-18 07:35:00,53.6,47.6,30.03,NNW,337,0.0,-999.0,80,-99.99,,,0.00,Acu-Link.com,2013-06-18 12:35:00,
2013-06-18 07:50:00,56.7,48.5,30.02,NE,45,0.0,-999.0,74,-99.99,,,0.00,Acu-Link.com,2013-06-18 12:50:00,
2013-06-18 08:05:00,61.7,50.6,30.02,NE,45,1.7,-999.0,67,-99.99,,,0.00,Acu-Link.com,2013-06-18 13:05:00,
2013-06-18 08:21:00,60.3,50.1,30.03,SE,135,2.2,-999.0,69,-99.99,,,0.00,Acu-Link.com,2013-06-18 13:21:00,
2013-06-18 08:36:00,59.7,49.9,30.03,ESE,112,2.7,-999.0,70,-99.99,,,0.00,Acu-Link.com,2013-06-18 13:36:00,
2013-06-18 08:51:00,59.9,50.1,30.02,East,90,2.7,-999.0,70,-99.99,,,0.00,Acu-Link.com,2013-06-18 13:51:00,
2013-06-18 09:07:00,61.3,51.4,30.03,ENE,67,3.2,-999.0,70,-99.99,,,0.00,Acu-Link.com,2013-06-18 14:07:00,
2013-06-18 09:22:00,61.9,52.0,30.03,ESE,112,3.2,-999.0,70,-99.99,,,0.00,Acu-Link.com,2013-06-18 14:22:00,
2013-06-18 09:37:00,63.5,52.7,30.01,ESE,112,3.7,-999.0,68,-99.99,,,0.00,Acu-Link.com,2013-06-18 14:37:00,
2013-06-18 09:53:00,64.0,54.0,30.01,ESE,112,5.8,-999.0,70,-99.99,,,0.00,Acu-Link.com,2013-06-18 14:53:00,
2013-06-18 10:08:00,64.9,54.1,30.02,ESE,112,3.7,-999.0,68,-99.99,,,0.00,Acu-Link.com,2013-06-18 15:08:00,
2013-06-18 10:23:00,64.8,54.8,30.02,SE,135,2.2,-999.0,70,-99.99,,,0.00,Acu-Link.com,2013-06-18 15:23:00,
2013-06-18 10:38:00,66.4,55.5,30.02,NE,45,3.2,-999.0,68,-99.99,,,0.00,Acu-Link.com,2013-06-18 15:38:00,
2013-06-18 10:53:00,67.5,55.7,30.03,ENE,67,4.2,-999.0,66,-99.99,,,0.00,Acu-Link.com,2013-06-18 15:53:00,
2013-06-18 11:08:00,68.2,56.4,30.02,NE,45,2.2,-999.0,66,-99.99,,,0.00,Acu-Link.com,2013-06-18 16:08:00,
2013-06-18 11:24:00,68.2,56.8,30.04,SE,135,2.2,-999.0,67,-99.99,,,0.00,Acu-Link.com,2013-06-18 16:24:00,
2013-06-18 11:39:00,69.6,57.7,30.02,ESE,112,3.2,-999.0,66,-99.99,,,0.00,Acu-Link.com,2013-06-18 16:39:00,
2013-06-18 11:54:00,69.3,57.9,30.01,NNE,22,4.7,-999.0,67,-99.99,,,0.00,Acu-Link.com,2013-06-18 16:54:00,
2013-06-18 12:10:00,68.7,57.7,30.02,SSE,157,0.0,-999.0,68,-99.99,,,0.00,Acu-Link.com,2013-06-18 17:10:00,
2013-06-18 12:25:00,70.0,58.9,30.01,WSW,247,3.2,-999.0,68,-99.99,,,0.00,Acu-Link.com,2013-06-18 17:25:00,
2013-06-18 12:40:00,71.2,59.2,30.02,ESE,112,3.2,-999.0,66,-99.99,,,0.00,Acu-Link.com,2013-06-18 17:40:00,
2013-06-18 12:55:00,71.2,59.7,30.00,SE,135,3.2,-999.0,67,-99.99,,,0.00,Acu-Link.com,2013-06-18 17:55:00,
2013-06-18 13:11:00,73.4,60.5,30.00,ESE,112,6.3,-999.0,64,-99.99,,,0.00,Acu-Link.com,2013-06-18 18:11:00,
2013-06-18 13:26:00,70.3,58.8,30.02,ESE,112,1.7,-999.0,67,-99.99,,,0.00,Acu-Link.com,2013-06-18 18:26:00,
2013-06-18 13:41:00,73.9,60.5,29.99,ESE,112,3.2,-999.0,63,-99.99,,,0.00,Acu-Link.com,2013-06-18 18:41:00,
2013-06-18 13:56:00,71.6,59.2,30.01,SE,135,4.2,-999.0,65,-99.99,,,0.00,Acu-Link.com,2013-06-18 18:56:00,
2013-06-18 14:11:00,71.8,59.4,29.99,SE,135,2.7,-999.0,65,-99.99,,,0.00,Acu-Link.com,2013-06-18 19:11:00,
2013-06-18 14:26:00,72.3,59.4,29.99,ESE,112,1.1,-999.0,64,-99.99,,,0.00,Acu-Link.com,2013-06-18 19:26:00,
2013-06-18 14:41:00,74.1,60.7,29.98,NNW,337,6.8,-999.0,63,-99.99,,,0.00,Acu-Link.com,2013-06-18 19:41:00,
2013-06-18 15:12:00,75.2,60.8,29.99,NE,45,3.7,-999.0,61,-99.99,,,0.00,Acu-Link.com,2013-06-18 20:12:00,
2013-06-18 15:27:00,74.8,60.4,29.97,ESE,112,3.7,-999.0,61,-99.99,,,0.00,Acu-Link.com,2013-06-18 20:27:00,
2013-06-18 15:42:00,75.7,60.3,29.98,SE,135,4.7,-999.0,59,-99.99,,,0.00,Acu-Link.com,2013-06-18 20:42:00,
2013-06-18 15:58:00,76.1,60.7,29.96,ESE,112,4.2,-999.0,59,-99.99,,,0.00,Acu-Link.com,2013-06-18 20:58:00,
2013-06-18 16:13:00,76.3,60.9,29.96,NE,45,2.2,-999.0,59,-99.99,,,0.00,Acu-Link.com,2013-06-18 21:13:00,
2013-06-18 16:28:00,76.1,60.2,29.95,SSE,157,4.2,-999.0,58,-99.99,,,0.00,Acu-Link.com,2013-06-18 21:28:00,
2013-06-18 16:43:00,75.4,60.5,29.97,ESE,112,2.7,-999.0,60,-99.99,,,0.00,Acu-Link.com,2013-06-18 21:43:00,
2013-06-18 16:59:00,76.1,60.2,29.94,ESE,112,2.2,-999.0,58,-99.99,,,0.00,Acu-Link.com,2013-06-18 21:59:00,
2013-06-18 17:14:00,77.7,60.7,29.96,ESE,112,5.8,-999.0,56,-99.99,,,0.00,Acu-Link.com,2013-06-18 22:14:00,
2013-06-18 17:29:00,76.1,60.2,29.94,South,180,1.1,-999.0,58,-99.99,,,0.00,Acu-Link.com,2013-06-18 22:29:00,
2013-06-18 17:44:00,79.9,61.7,29.94,ESE,112,1.7,-999.0,54,-99.99,,,0.00,Acu-Link.com,2013-06-18 22:44:00,
2013-06-18 17:59:00,80.1,61.4,29.94,SE,135,2.2,-999.0,53,-99.99,,,0.00,Acu-Link.com,2013-06-18 22:59:00,
2013-06-18 18:15:00,81.3,61.4,29.94,NE,45,2.2,-999.0,51,-99.99,,,0.00,Acu-Link.com,2013-06-18 23:15:00,
2013-06-18 18:30:00,81.9,60.3,29.94,SE,135,1.7,-999.0,48,-99.99,,,0.00,Acu-Link.com,2013-06-18 23:30:00,
2013-06-18 18:45:00,80.6,60.2,29.94,SSE,157,2.2,-999.0,50,-99.99,,,0.00,Acu-Link.com,2013-06-18 23:45:00,
2013-06-18 19:00:00,78.1,59.6,29.94,ESE,112,1.7,-999.0,53,-99.99,,,0.00,Acu-Link.com,2013-06-19 00:00:00,
2013-06-18 19:15:00,77.2,60.3,29.93,South,180,2.2,-999.0,56,-99.99,,,0.00,Acu-Link.com,2013-06-19 00:15:00,
2013-06-18 19:31:00,75.9,59.1,29.94,ENE,67,1.7,-999.0,56,-99.99,,,0.00,Acu-Link.com,2013-06-19 00:31:00,
2013-06-18 19:46:00,73.9,58.7,29.96,NE,45,3.2,-999.0,59,-99.99,,,0.00,Acu-Link.com,2013-06-19 00:46:00,
2013-06-18 20:01:00,73.2,58.5,29.95,East,90,1.1,-999.0,60,-99.99,,,0.00,Acu-Link.com,2013-06-19 01:01:00,
2013-06-18 20:16:00,72.7,58.5,29.93,ESE,112,1.1,-999.0,61,-99.99,,,0.00,Acu-Link.com,2013-06-19 01:16:00,
2013-06-18 20:32:00,71.1,57.9,29.94,SE,135,2.7,-999.0,63,-99.99,,,0.00,Acu-Link.com,2013-06-19 01:32:00,
2013-06-18 20:47:00,69.8,57.1,29.95,SE,135,0.0,-999.0,64,-99.99,,,0.00,Acu-Link.com,2013-06-19 01:47:00,
2013-06-18 21:02:00,68.5,56.7,29.93,East,90,0.0,-999.0,66,-99.99,,,0.00,Acu-Link.com,2013-06-19 02:02:00,
2013-06-18 21:17:00,67.1,56.2,29.93,ESE,112,1.1,-999.0,68,-99.99,,,0.00,Acu-Link.com,2013-06-19 02:17:00,
2013-06-18 21:33:00,65.8,55.7,29.93,SE,135,0.0,-999.0,70,-99.99,,,0.00,Acu-Link.com,2013-06-19 02:33:00,
2013-06-18 21:48:00,65.1,55.5,29.93,ESE,112,0.0,-999.0,71,-99.99,,,0.00,Acu-Link.com,2013-06-19 02:48:00,
2013-06-18 22:03:00,64.6,55.0,29.93,ESE,112,0.0,-999.0,71,-99.99,,,0.00,Acu-Link.com,2013-06-19 03:03:00,
2013-06-18 22:19:00,64.0,54.8,29.93,ESE,112,0.0,-999.0,72,-99.99,,,0.00,Acu-Link.com,2013-06-19 03:19:00,
2013-06-18 22:34:00,63.5,54.7,29.94,ESE,112,0.0,-999.0,73,-99.99,,,0.00,Acu-Link.com,2013-06-19 03:34:00,
2013-06-18 22:49:00,62.6,56.3,29.97,ENE,67,0.0,-999.0,80,-99.99,,,0.00,Acu-Link.com,2013-06-19 03:49:00,
2013-06-18 23:05:00,61.3,56.7,29.96,NNE,22,0.0,-999.0,85,-99.99,,,0.00,Acu-Link.com,2013-06-19 04:05:00,
2013-06-18 23:20:00,60.3,56.7,29.95,East,90,0.0,-999.0,88,-99.99,,,0.00,Acu-Link.com,2013-06-19 04:20:00,
2013-06-18 23:35:00,59.4,55.8,29.95,NNW,337,0.0,-999.0,88,-99.99,,,0.00,Acu-Link.com,2013-06-19 04:35:00,
2013-06-18 23:50:00,58.6,56.0,29.95,NNW,337,0.0,-999.0,91,-99.99,,,0.00,Acu-Link.com,2013-06-19 04:50:00,